Time,TemperatureF,DewpointF,PressureIn,WindDirection,WindDirectionDegrees,WindSpeedMPH,WindSpeedGustMPH,Humidity,HourlyPrecipIn,Conditions,Clouds,dailyrainin,SolarRadiationWatts/m^2,SoftwareType,DateUTC
2013-03-25 00:00:00,29.1,21.5,30.06,NNW,344,2.0,6.0,73,0.00,,---,0.00,0.00,VWS V14.01,2013-03-25 05:00:00,
2013-03-25 00:10:00,28.9,21.4,30.06,North,350,0.0,10.0,73,0.00,,---,0.00,0.00,VWS V14.01,2013-03-25 05:10:00,
2013-03-25 00:15:00,28.8,21.2,30.06,NNE,26,5.0,9.0,73,0.00,,---,0.00,0.00,VWS V14.01,2013-03-25 05:15:00,
2013-03-25 00:20:00,28.7,21.1,30.06,NNE,19,1.0,7.0,73,0.00,,---,0.00,0.00,VWS V14.01,2013-03-25 05:20:00,
2013-03-25 00:25:00,28.5,21.0,30.06,NNW,346,6.0,6.0,73,0.00,,---,0.00,0.00,VWS V14.01,2013-03-25 05:25:00,
2013-03-25 00:30:00,28.4,20.9,30.06,North,9,6.0,11.0,73,0.00,,---,0.00,0.00,VWS V14.01,2013-03-25 05:30:00,
2013-03-25 00:35:00,28.2,20.7,30.06,North,360,10.0,10.0,73,0.00,,---,0.00,0.00,VWS V14.01,2013-03-25 05:35:00,
2013-03-25 00:40:00,28.1,20.9,30.06,NNW,348,1.0,10.0,74,0.00,,---,0.00,0.00,VWS V14.01,2013-03-25 05:40:00,
2013-03-25 00:45:00,27.9,20.7,30.06,NW,321,4.0,9.0,74,0.00,,---,0.00,0.00,VWS V14.01,2013-03-25 05:45:00,
2013-03-25 00:50:00,27.7,20.5,30.06,NNE,13,2.0,5.0,74,0.00,,---,0.00,0.00,VWS V14.01,2013-03-25 05:50:00,
2013-03-25 00:55:00,27.6,20.4,30.06,NW,322,2.0,4.0,74,0.00,,---,0.00,0.00,VWS V14.01,2013-03-25 05:55:00,
2013-03-25 01:00:00,27.4,20.2,30.06,North,355,2.0,5.0,74,0.00,,---,0.00,0.00,VWS V14.01,2013-03-25 06:00:00,
2013-03-25 01:05:00,27.3,20.1,30.06,NNE,13,2.0,8.0,74,0.00,,---,0.00,0.00,VWS V14.01,2013-03-25 06:05:00,
2013-03-25 01:10:00,27.2,20.0,30.06,North,9,1.0,6.0,74,0.00,,---,0.00,0.00,VWS V14.01,2013-03-25 06:10:00,
2013-03-25 01:15:00,27.1,19.9,30.07,NNW,344,3.0,5.0,74,0.00,,---,0.00,0.00,VWS V14.01,2013-03-25 06:15:00,
2013-03-25 01:25:00,26.9,19.4,30.07,North,360,2.0,5.0,73,0.00,,---,0.00,0.00,VWS V14.01,2013-03-25 06:25:00,
2013-03-25 01:30:00,26.8,19.3,30.07,NW,315,2.0,5.0,73,0.00,,---,0.00,0.00,VWS V14.01,2013-03-25 06:30:00,
2013-03-25 01:35:00,26.6,19.4,30.07,North,349,3.0,11.0,74,0.00,,---,0.00,0.00,VWS V14.01,2013-03-25 06:35:00,
2013-03-25 01:40:00,26.6,19.1,30.07,North,360,3.0,9.0,73,0.00,,---,0.00,0.00,VWS V14.01,2013-03-25 06:40:00,
2013-03-25 01:45:00,26.5,19.0,30.07,NNW,348,3.0,5.0,73,0.00,,---,0.00,0.00,VWS V14.01,2013-03-25 06:45:00,
2013-03-25 01:50:00,26.4,18.9,30.07,North,360,3.0,6.0,73,0.00,,---,0.00,0.00,VWS V14.01,2013-03-25 06:50:00,
2013-03-25 01:55:00,26.2,19.1,30.07,North,355,2.0,5.0,74,0.00,,---,0.00,0.00,VWS V14.01,2013-03-25 06:55:00,
2013-03-25 02:00:00,26.0,18.9,30.07,North,360,2.0,5.0,74,0.00,,---,0.00,0.00,VWS V14.01,2013-03-25 07:00:00,
2013-03-25 02:05:00,25.9,18.8,30.07,NW,323,2.0,4.0,74,0.00,,---,0.00,0.00,VWS V14.01,2013-03-25 07:05:00,
2013-03-25 02:10:00,25.8,18.7,30.07,NW,321,1.0,4.0,74,0.00,,---,0.00,0.00,VWS V14.01,2013-03-25 07:10:00,
2013-03-25 02:15:00,25.6,18.8,30.07,NNW,329,1.0,4.0,75,0.00,,---,0.00,0.00,VWS V14.01,2013-03-25 07:15:00,
2013-03-25 02:20:00,25.5,18.7,30.07,NNW,345,2.0,5.0,75,0.00,,---,0.00,0.00,VWS V14.01,2013-03-25 07:20:00,
2013-03-25 02:25:00,25.4,18.6,30.07,NNW,346,2.0,4.0,75,0.00,,---,0.00,0.00,VWS V14.01,2013-03-25 07:25:00,
2013-03-25 02:30:00,25.3,18.5,30.07,NW,323,2.0,4.0,75,0.00,,---,0.00,0.00,VWS V14.01,2013-03-25 07:30:00,
2013-03-25 02:35:00,25.3,18.5,30.07,NW,321,2.0,4.0,75,0.00,,---,0.00,0.00,VWS V14.01,2013-03-25 07:35:00,
2013-03-25 02:40:00,25.3,18.5,30.07,NNW,334,3.0,5.0,75,0.00,,---,0.00,0.00,VWS V14.01,2013-03-25 07:40:00,
2013-03-25 02:45:00,25.3,18.5,30.07,NW,315,3.0,3.0,75,0.00,,---,0.00,0.00,VWS V14.01,2013-03-25 07:45:00,
2013-03-25 02:50:00,25.2,18.4,30.07,NNW,345,3.0,6.0,75,0.00,,---,0.00,0.00,VWS V14.01,2013-03-25 07:50:00,
2013-03-25 02:55:00,25.2,18.4,30.07,NW,319,1.0,4.0,75,0.00,,---,0.00,0.00,VWS V14.01,2013-03-25 07:55:00,
2013-03-25 03:00:00,25.0,18.2,30.07,NW,311,2.0,5.0,75,0.00,,---,0.00,0.00,VWS V14.01,2013-03-25 08:00:00,
2013-03-25 03:05:00,24.9,18.1,30.07,NNW,328,3.0,4.0,75,0.00,,---,0.00,0.00,VWS V14.01,2013-03-25 08:05:00,
2013-03-25 03:10:00,24.9,18.4,30.07,NW,308,2.0,6.0,76,0.00,,---,0.00,0.00,VWS V14.01,2013-03-25 08:10:00,
2013-03-25 03:15:00,24.8,18.3,30.06,NW,317,3.0,6.0,76,0.00,,---,0.00,0.00,VWS V14.01,2013-03-25 08:15:00,
2013-03-25 03:20:00,24.7,18.2,30.06,NNW,338,4.0,5.0,76,0.00,,---,0.00,0.00,VWS V14.01,2013-03-25 08:20:00,
2013-03-25 03:25:00,24.7,18.2,30.07,NNW,335,4.0,4.0,76,0.00,,---,0.00,0.00,VWS V14.01,2013-03-25 08:25:00,
2013-03-25 03:30:00,24.6,18.1,30.06,North,355,3.0,5.0,76,0.00,,---,0.00,0.00,VWS V14.01,2013-03-25 08:30:00,
2013-03-25 03:35:00,24.6,18.1,30.07,NNW,341,2.0,7.0,76,0.00,,---,0.00,0.00,VWS V14.01,2013-03-25 08:35:00,
2013-03-25 03:40:00,24.5,18.0,30.06,NNW,342,5.0,7.0,76,0.00,,---,0.00,0.00,VWS V14.01,2013-03-25 08:40:00,
2013-03-25 03:45:00,24.5,17.7,30.06,NNW,330,2.0,9.0,75,0.00,,---,0.00,0.00,VWS V14.01,2013-03-25 08:45:00,
2013-03-25 03:50:00,24.5,17.7,30.06,NNW,346,4.0,8.0,75,0.00,,---,0.00,0.00,VWS V14.01,2013-03-25 08:50:00,
2013-03-25 03:55:00,24.4,17.6,30.06,North,351,1.0,7.0,75,0.00,,---,0.00,0.00,VWS V14.01,2013-03-25 08:55:00,
2013-03-25 04:00:00,24.3,17.5,30.06,North,349,2.0,5.0,75,0.00,,---,0.00,0.00,VWS V14.01,2013-03-25 09:00:00,
2013-03-25 04:05:00,24.3,17.2,30.06,NW,309,3.0,5.0,74,0.00,,---,0.00,0.00,VWS V14.01,2013-03-25 09:05:00,
2013-03-25 04:10:00,24.3,17.2,30.06,NNW,344,3.0,7.0,74,0.00,,---,0.00,0.00,VWS V14.01,2013-03-25 09:10:00,
2013-03-25 04:15:00,24.3,17.2,30.06,NNW,346,3.0,7.0,74,0.00,,---,0.00,0.00,VWS V14.01,2013-03-25 09:15:00,
2013-03-25 04:20:00,24.2,17.1,30.07,NW,323,5.0,6.0,74,0.00,,---,0.00,0.00,VWS V14.01,2013-03-25 09:20:00,
2013-03-25 04:25:00,24.1,17.0,30.07,NNW,340,3.0,7.0,74,0.00,,---,0.00,0.00,VWS V14.01,2013-03-25 09:25:00,
2013-03-25 04:30:00,24.0,16.9,30.07,NNW,327,3.0,7.0,74,0.00,,---,0.00,0.00,VWS V14.01,2013-03-25 09:30:00,
2013-03-25 04:35:00,24.0,16.9,30.07,NNW,343,4.0,9.0,74,0.00,,---,0.00,0.00,VWS V14.01,2013-03-25 09:35:00,
2013-03-25 04:40:00,23.9,16.8,30.07,NNW,340,3.0,6.0,74,0.00,,---,0.00,0.00,VWS V14.01,2013-03-25 09:40:00,
2013-03-25 04:45:00,23.9,16.8,30.07,NW,307,2.0,6.0,74,0.00,,---,0.00,0.00,VWS V14.01,2013-03-25 09:45:00,
2013-03-25 04:50:00,23.7,16.6,30.07,NNW,348,3.0,6.0,74,0.00,,---,0.00,0.00,VWS V14.01,2013-03-25 09:50:00,
2013-03-25 04:55:00,23.6,16.5,30.07,NNW,342,6.0,6.0,74,0.00,,---,0.00,0.00,VWS V14.01,2013-03-25 09:55:00,
2013-03-25 05:00:00,23.5,16.5,30.07,NW,322,3.0,7.0,74,0.00,,---,0.00,0.00,VWS V14.01,2013-03-25 10:00:00,
2013-03-25 05:05:00,23.4,16.4,30.07,NW,317,3.0,5.0,74,0.00,,---,0.00,0.00,VWS V14.01,2013-03-25 10:05:00,
2013-03-25 05:10:00,23.2,16.2,30.07,NNW,329,4.0,5.0,74,0.00,,---,0.00,0.00,VWS V14.01,2013-03-25 10:10:00,
2013-03-25 05:15:00,23.2,16.2,30.08,NW,321,2.0,11.0,74,0.00,,---,0.00,0.00,VWS V14.01,2013-03-25 10:15:00,
2013-03-25 05:20:00,23.1,16.1,30.08,NNW,346,2.0,9.0,74,0.00,,---,0.00,0.00,VWS V14.01,2013-03-25 10:20:00,
2013-03-25 05:25:00,23.0,16.0,30.08,NNW,345,2.0,4.0,74,0.00,,---,0.00,0.00,VWS V14.01,2013-03-25 10:25:00,
2013-03-25 05:30:00,22.9,15.9,30.08,NNW,348,3.0,5.0,74,0.00,,---,0.00,0.00,VWS V14.01,2013-03-25 10:30:00,
2013-03-25 05:35:00,22.8,16.1,30.08,NNW,340,2.0,9.0,75,0.00,,---,0.00,0.00,VWS V14.01,2013-03-25 10:35:00,
2013-03-25 05:40:00,22.8,16.1,30.08,NNW,337,4.0,7.0,75,0.00,,---,0.00,0.00,VWS V14.01,2013-03-25 10:40:00,
2013-03-25 05:45:00,22.7,16.0,30.08,NNW,348,7.0,9.0,75,0.00,,---,0.00,0.00,VWS V14.01,2013-03-25 10:45:00,
2013-03-25 05:50:00,22.6,15.9,30.08,NNW,340,3.0,7.0,75,0.00,,---,0.00,0.00,VWS V14.01,2013-03-25 10:50:00,
2013-03-25 05:55:00,22.5,15.8,30.08,NW,306,3.0,5.0,75,0.00,,---,0.00,0.00,VWS V14.01,2013-03-25 10:55:00,
2013-03-25 06:05:00,22.4,15.7,30.09,NW,316,3.0,6.0,75,0.00,,---,0.00,0.00,VWS V14.01,2013-03-25 11:05:00,
2013-03-25 06:10:00,22.2,15.5,30.09,NW,315,4.0,9.0,75,0.00,,---,0.00,0.00,VWS V14.01,2013-03-25 11:10:00,
2013-03-25 06:15:00,22.2,15.5,30.09,NW,311,3.0,7.0,75,0.00,,---,0.00,0.00,VWS V14.01,2013-03-25 11:15:00,
2013-03-25 06:20:00,22.2,15.5,30.10,NW,315,4.0,7.0,75,0.00,,---,0.00,0.00,VWS V14.01,2013-03-25 11:20:00,
2013-03-25 06:25:00,22.2,15.5,30.10,NNW,330,2.0,5.0,75,0.00,,---,0.00,0.00,VWS V14.01,2013-03-25 11:25:00,
2013-03-25 06:30:00,22.0,15.3,30.10,NNW,328,3.0,4.0,75,0.00,,---,0.00,0.00,VWS V14.01,2013-03-25 11:30:00,
2013-03-25 06:35:00,21.9,15.2,30.10,NNW,336,3.0,6.0,75,0.00,,---,0.00,0.00,VWS V14.01,2013-03-25 11:35:00,
2013-03-25 06:40:00,21.8,15.1,30.10,NNW,337,3.0,6.0,75,0.00,,---,0.00,0.00,VWS V14.01,2013-03-25 11:40:00,
2013-03-25 06:45:00,21.8,15.1,30.10,NNW,338,1.0,6.0,75,0.00,,---,0.00,0.00,VWS V14.01,2013-03-25 11:45:00,
2013-03-25 06:50:00,21.6,14.9,30.10,NW,321,3.0,5.0,75,0.00,,---,0.00,0.00,VWS V14.01,2013-03-25 11:50:00,
2013-03-25 06:55:00,21.6,14.9,30.10,NNW,340,3.0,8.0,75,0.00,,---,0.00,0.00,VWS V14.01,2013-03-25 11:55:00,
2013-03-25 07:00:00,21.5,14.8,30.10,NW,318,3.0,6.0,75,0.00,,---,0.00,0.00,VWS V14.01,2013-03-25 12:00:00,
2013-03-25 07:10:00,21.5,14.8,30.11,NNW,334,2.0,5.0,75,0.00,,---,0.00,5.00,VWS V14.01,2013-03-25 12:10:00,
2013-03-25 07:15:00,21.4,14.7,30.11,NW,322,2.0,6.0,75,0.00,,---,0.00,9.00,VWS V14.01,2013-03-25 12:15:00,
2013-03-25 07:20:00,21.5,14.8,30.11,NNW,342,4.0,7.0,75,0.00,,---,0.00,14.00,VWS V14.01,2013-03-25 12:20:00,
2013-03-25 07:25:00,21.4,14.7,30.11,NW,321,3.0,4.0,75,0.00,,---,0.00,21.00,VWS V14.01,2013-03-25 12:25:00,
2013-03-25 07:30:00,21.4,14.7,30.11,NNW,338,6.0,7.0,75,0.00,,---,0.00,26.00,VWS V14.01,2013-03-25 12:30:00,
2013-03-25 07:35:00,21.4,14.7,30.12,NW,313,2.0,11.0,75,0.00,,---,0.00,39.00,VWS V14.01,2013-03-25 12:35:00,
2013-03-25 07:45:00,21.5,14.8,30.12,NNW,347,5.0,5.0,75,0.00,,---,0.00,51.00,VWS V14.01,2013-03-25 12:45:00,
2013-03-25 07:50:00,21.6,14.9,30.12,North,360,4.0,7.0,75,0.00,,---,0.00,84.00,VWS V14.01,2013-03-25 12:50:00,
2013-03-25 07:55:00,21.9,15.2,30.12,NNW,337,4.0,6.0,75,0.00,,---,0.00,114.00,VWS V14.01,2013-03-25 12:55:00,
2013-03-25 08:00:00,22.2,15.2,30.12,NNW,330,5.0,8.0,74,0.00,,---,0.00,139.00,VWS V14.01,2013-03-25 13:00:00,
2013-03-25 08:05:00,22.5,15.5,30.12,NNW,343,1.0,10.0,74,0.00,,---,0.00,155.00,VWS V14.01,2013-03-25 13:05:00,
2013-03-25 08:10:00,22.7,15.4,30.12,North,355,2.0,7.0,73,0.00,,---,0.00,169.00,VWS V14.01,2013-03-25 13:10:00,
2013-03-25 08:15:00,23.0,15.3,30.13,NNW,340,4.0,6.0,72,0.00,,---,0.00,169.00,VWS V14.01,2013-03-25 13:15:00,
2013-03-25 08:20:00,23.2,15.5,30.13,NNW,342,4.0,7.0,72,0.00,,---,0.00,185.00,VWS V14.01,2013-03-25 13:20:00,
2013-03-25 08:25:00,23.4,15.7,30.13,NW,319,3.0,6.0,72,0.00,,---,0.00,197.00,VWS V14.01,2013-03-25 13:25:00,
2013-03-25 08:30:00,23.7,15.7,30.13,NNE,18,5.0,6.0,71,0.00,,---,0.00,199.00,VWS V14.01,2013-03-25 13:30:00,
2013-03-25 08:35:00,23.8,15.8,30.13,NW,320,3.0,5.0,71,0.00,,---,0.00,207.00,VWS V14.01,2013-03-25 13:35:00,
2013-03-25 08:40:00,23.9,15.6,30.14,North,5,5.0,10.0,70,0.00,,---,0.00,239.00,VWS V14.01,2013-03-25 13:40:00,
2013-03-25 08:45:00,24.1,15.8,30.13,NNW,347,1.0,9.0,70,0.00,,---,0.00,262.00,VWS V14.01,2013-03-25 13:45:00,
2013-03-25 08:50:00,24.4,16.0,30.13,NNW,342,4.0,7.0,70,0.00,,---,0.00,281.00,VWS V14.01,2013-03-25 13:50:00,
2013-03-25 08:55:00,24.8,16.1,30.13,NNW,329,2.0,6.0,69,0.00,,---,0.00,306.00,VWS V14.01,2013-03-25 13:55:00,
2013-03-25 09:00:00,25.1,16.0,30.13,North,5,3.0,7.0,68,0.00,,---,0.00,323.00,VWS V14.01,2013-03-25 14:00:00,
2013-03-25 09:05:00,25.1,15.7,30.13,NW,307,5.0,10.0,67,0.00,,---,0.00,341.00,VWS V14.01,2013-03-25 14:05:00,
2013-03-25 09:10:00,25.4,16.0,30.14,North,355,4.0,7.0,67,0.00,,---,0.00,359.00,VWS V14.01,2013-03-25 14:10:00,
2013-03-25 09:15:00,25.8,16.4,30.13,NW,306,3.0,7.0,67,0.00,,---,0.00,330.00,VWS V14.01,2013-03-25 14:15:00,
2013-03-25 09:20:00,25.9,16.1,30.14,North,360,1.0,11.0,66,0.00,,---,0.00,380.00,VWS V14.01,2013-03-25 14:20:00,
2013-03-25 09:25:00,26.1,16.0,30.14,North,360,7.0,10.0,65,0.00,,---,0.00,387.00,VWS V14.01,2013-03-25 14:25:00,
2013-03-25 09:30:00,26.2,16.1,30.14,NNW,336,11.0,11.0,65,0.00,,---,0.00,399.00,VWS V14.01,2013-03-25 14:30:00,
2013-03-25 09:35:00,26.3,16.1,30.14,NW,313,3.0,11.0,65,0.00,,---,0.00,420.00,VWS V14.01,2013-03-25 14:35:00,
2013-03-25 09:40:00,26.7,16.2,30.14,NW,311,4.0,6.0,64,0.00,,---,0.00,431.00,VWS V14.01,2013-03-25 14:40:00,
2013-03-25 09:45:00,27.1,16.6,30.14,NW,319,5.0,6.0,64,0.00,,---,0.00,459.00,VWS V14.01,2013-03-25 14:45:00,
2013-03-25 09:50:00,27.7,17.1,30.14,NNW,344,9.0,13.0,64,0.00,,---,0.00,473.00,VWS V14.01,2013-03-25 14:50:00,
2013-03-25 09:55:00,27.5,16.6,30.14,NNE,23,3.0,9.0,63,0.00,,---,0.00,492.00,VWS V14.01,2013-03-25 14:55:00,
2013-03-25 10:00:00,27.5,16.6,30.14,NW,323,4.0,9.0,63,0.00,,---,0.00,508.00,VWS V14.01,2013-03-25 15:00:00,
2013-03-25 10:05:00,27.6,16.3,30.14,North,360,2.0,10.0,62,0.00,,---,0.00,522.00,VWS V14.01,2013-03-25 15:05:00,
2013-03-25 10:10:00,27.8,16.5,30.14,WNW,300,2.0,11.0,62,0.00,,---,0.00,540.00,VWS V14.01,2013-03-25 15:10:00,
2013-03-25 10:15:00,28.1,16.8,30.14,North,349,2.0,10.0,62,0.00,,---,0.00,552.00,VWS V14.01,2013-03-25 15:15:00,
2013-03-25 10:20:00,28.5,17.1,30.14,NNW,340,5.0,9.0,62,0.00,,---,0.00,575.00,VWS V14.01,2013-03-25 15:20:00,
2013-03-25 10:25:00,28.4,16.7,30.14,NW,309,2.0,11.0,61,0.00,,---,0.00,585.00,VWS V14.01,2013-03-25 15:25:00,
2013-03-25 10:30:00,29.0,17.6,30.14,NNW,332,5.0,6.0,62,0.00,,---,0.00,592.00,VWS V14.01,2013-03-25 15:30:00,
2013-03-25 10:35:00,29.2,16.7,30.15,NW,319,3.0,8.0,59,0.00,,---,0.00,603.00,VWS V14.01,2013-03-25 15:35:00,
2013-03-25 10:40:00,29.2,17.1,30.15,North,9,5.0,7.0,60,0.00,,---,0.00,615.00,VWS V14.01,2013-03-25 15:40:00,
2013-03-25 10:45:00,29.4,17.2,30.15,NNW,346,4.0,5.0,60,0.00,,---,0.00,624.00,VWS V14.01,2013-03-25 15:45:00,
2013-03-25 10:50:00,29.9,17.3,30.15,NNW,347,2.0,12.0,59,0.00,,---,0.00,640.00,VWS V14.01,2013-03-25 15:50:00,
2013-03-25 10:55:00,30.5,17.9,30.15,North,5,2.0,6.0,59,0.00,,---,0.00,650.00,VWS V14.01,2013-03-25 15:55:00,
2013-03-25 11:00:00,30.8,17.8,30.15,North,360,3.0,7.0,58,0.00,,---,0.00,670.00,VWS V14.01,2013-03-25 16:00:00,
2013-03-25 11:05:00,31.0,18.0,30.15,NW,317,5.0,6.0,58,0.00,,---,0.00,686.00,VWS V14.01,2013-03-25 16:05:00,
2013-03-25 11:10:00,30.8,17.8,30.15,NW,318,3.0,11.0,58,0.00,,---,0.00,696.00,VWS V14.01,2013-03-25 16:10:00,
2013-03-25 11:15:00,31.4,18.7,30.15,North,5,5.0,10.0,59,0.00,,---,0.00,689.00,VWS V14.01,2013-03-25 16:15:00,
2013-03-25 11:20:00,31.4,17.9,30.15,NW,321,2.0,10.0,57,0.00,,---,0.00,703.00,VWS V14.01,2013-03-25 16:20:00,
2013-03-25 11:25:00,32.0,18.9,30.15,NW,316,5.0,7.0,58,0.00,,---,0.00,710.00,VWS V14.01,2013-03-25 16:25:00,
2013-03-25 11:30:00,32.0,18.5,30.15,North,360,5.0,7.0,57,0.00,,---,0.00,722.00,VWS V14.01,2013-03-25 16:30:00,
2013-03-25 11:40:00,32.0,18.9,30.15,NNW,346,8.0,8.0,58,0.00,,---,0.00,731.00,VWS V14.01,2013-03-25 16:40:00,
2013-03-25 11:45:00,32.4,18.9,30.15,NNW,347,3.0,9.0,57,0.00,,---,0.00,731.00,VWS V14.01,2013-03-25 16:45:00,
2013-03-25 11:50:00,32.8,19.3,30.15,NW,321,3.0,9.0,57,0.00,,---,0.00,782.00,VWS V14.01,2013-03-25 16:50:00,
2013-03-25 11:55:00,33.5,19.5,30.15,NNW,338,4.0,10.0,56,0.00,,---,0.00,673.00,VWS V14.01,2013-03-25 16:55:00,
2013-03-25 12:00:00,33.2,18.8,30.15,NNE,13,5.0,10.0,55,0.00,,---,0.00,805.00,VWS V14.01,2013-03-25 17:00:00,
2013-03-25 12:05:00,32.9,18.9,30.15,NNW,346,5.0,9.0,56,0.00,,---,0.00,773.00,VWS V14.01,2013-03-25 17:05:00,
2013-03-25 12:10:00,33.5,19.9,30.15,NNW,338,2.0,7.0,57,0.00,,---,0.00,775.00,VWS V14.01,2013-03-25 17:10:00,
2013-03-25 12:15:00,34.2,20.1,30.15,WNW,300,10.0,10.0,56,0.00,,---,0.00,782.00,VWS V14.01,2013-03-25 17:15:00,
2013-03-25 12:20:00,34.5,20.4,30.15,North,355,5.0,10.0,56,0.00,,---,0.00,793.00,VWS V14.01,2013-03-25 17:20:00,
2013-03-25 12:25:00,34.9,20.4,30.14,NNW,327,3.0,6.0,55,0.00,,---,0.00,800.00,VWS V14.01,2013-03-25 17:25:00,
2013-03-25 12:30:00,34.5,19.6,30.14,NW,311,3.0,9.0,54,0.00,,---,0.00,810.00,VWS V14.01,2013-03-25 17:30:00,
2013-03-25 12:35:00,34.5,20.0,30.14,NW,326,9.0,13.0,55,0.00,,---,0.00,877.00,VWS V14.01,2013-03-25 17:35:00,
2013-03-25 12:40:00,35.2,20.7,30.14,North,355,6.0,10.0,55,0.00,,---,0.00,830.00,VWS V14.01,2013-03-25 17:40:00,
2013-03-25 12:45:00,35.1,19.7,30.14,NW,313,4.0,10.0,53,0.00,,---,0.00,856.00,VWS V14.01,2013-03-25 17:45:00,
2013-03-25 12:50:00,35.1,20.1,30.14,NW,321,4.0,10.0,54,0.00,,---,0.00,311.00,VWS V14.01,2013-03-25 17:50:00,
2013-03-25 12:55:00,35.2,19.4,30.14,North,355,8.0,12.0,52,0.00,,---,0.00,972.00,VWS V14.01,2013-03-25 17:55:00,
2013-03-25 13:00:00,35.0,19.6,30.14,NNW,337,6.0,11.0,53,0.00,,---,0.00,250.00,VWS V14.01,2013-03-25 18:00:00,
2013-03-25 13:05:00,35.2,19.8,30.14,NNW,327,8.0,13.0,53,0.00,,---,0.00,990.00,VWS V14.01,2013-03-25 18:05:00,
2013-03-25 13:10:00,35.1,19.7,30.14,North,9,5.0,12.0,53,0.00,,---,0.00,893.00,VWS V14.01,2013-03-25 18:10:00,
2013-03-25 13:15:00,35.3,19.9,30.14,NNW,345,3.0,10.0,53,0.00,,---,0.00,1016.00,VWS V14.01,2013-03-25 18:15:00,
2013-03-25 13:20:00,35.5,19.6,30.14,North,11,7.0,10.0,52,0.00,,---,0.00,563.00,VWS V14.01,2013-03-25 18:20:00,
2013-03-25 13:25:00,35.3,19.0,30.14,North,355,5.0,14.0,51,0.00,,---,0.00,969.00,VWS V14.01,2013-03-25 18:25:00,
2013-03-25 13:30:00,35.8,19.9,30.13,NNW,345,4.0,11.0,52,0.00,,---,0.00,912.00,VWS V14.01,2013-03-25 18:30:00,
2013-03-25 13:35:00,36.1,19.7,30.13,NNW,347,7.0,12.0,51,0.00,,---,0.00,870.00,VWS V14.01,2013-03-25 18:35:00,
2013-03-25 13:40:00,36.1,19.3,30.13,NE,35,3.0,8.0,50,0.00,,---,0.00,870.00,VWS V14.01,2013-03-25 18:40:00,
2013-03-25 13:45:00,36.1,20.2,30.14,North,351,5.0,13.0,52,0.00,,---,0.00,858.00,VWS V14.01,2013-03-25 18:45:00,
2013-03-25 13:50:00,36.0,19.2,30.14,North,350,2.0,13.0,50,0.00,,---,0.00,824.00,VWS V14.01,2013-03-25 18:50:00,
2013-03-25 13:55:00,36.2,18.9,30.14,NNW,328,5.0,9.0,49,0.00,,---,0.00,858.00,VWS V14.01,2013-03-25 18:55:00,
2013-03-25 14:00:00,36.3,19.0,30.13,NW,315,3.0,19.0,49,0.00,,---,0.00,826.00,VWS V14.01,2013-03-25 19:00:00,
2013-03-25 14:05:00,36.2,19.4,30.14,North,349,10.0,12.0,50,0.00,,---,0.00,810.00,VWS V14.01,2013-03-25 19:05:00,
2013-03-25 14:10:00,36.0,19.2,30.14,NE,51,2.0,11.0,50,0.00,,---,0.00,812.00,VWS V14.01,2013-03-25 19:10:00,
2013-03-25 14:15:00,36.5,19.6,30.14,North,5,3.0,11.0,50,0.00,,---,0.00,796.00,VWS V14.01,2013-03-25 19:15:00,
2013-03-25 14:20:00,36.5,19.2,30.13,NNW,346,9.0,12.0,49,0.00,,---,0.00,793.00,VWS V14.01,2013-03-25 19:20:00,
2013-03-25 14:25:00,36.1,18.8,30.14,NNW,345,4.0,12.0,49,0.00,,---,0.00,788.00,VWS V14.01,2013-03-25 19:25:00,
2013-03-25 14:30:00,36.1,19.3,30.14,NW,324,2.0,11.0,50,0.00,,---,0.00,747.00,VWS V14.01,2013-03-25 19:30:00,
2013-03-25 14:35:00,36.3,19.5,30.14,NW,317,6.0,12.0,50,0.00,,---,0.00,786.00,VWS V14.01,2013-03-25 19:35:00,
2013-03-25 14:40:00,36.5,19.6,30.13,NW,306,4.0,11.0,50,0.00,,---,0.00,775.00,VWS V14.01,2013-03-25 19:40:00,
2013-03-25 14:45:00,37.0,20.1,30.13,NW,315,4.0,10.0,50,0.00,,---,0.00,786.00,VWS V14.01,2013-03-25 19:45:00,
2013-03-25 14:50:00,37.1,19.2,30.13,NW,304,4.0,12.0,48,0.00,,---,0.00,807.00,VWS V14.01,2013-03-25 19:50:00,
2013-03-25 14:55:00,36.9,19.5,30.13,NW,304,6.0,15.0,49,0.00,,---,0.00,756.00,VWS V14.01,2013-03-25 19:55:00,
2013-03-25 15:00:00,37.0,19.6,30.13,North,360,4.0,8.0,49,0.00,,---,0.00,752.00,VWS V14.01,2013-03-25 20:00:00,
2013-03-25 15:05:00,37.1,19.7,30.14,NNE,22,4.0,11.0,49,0.00,,---,0.00,752.00,VWS V14.01,2013-03-25 20:05:00,
2013-03-25 15:10:00,36.7,19.4,30.14,NW,317,6.0,12.0,49,0.00,,---,0.00,742.00,VWS V14.01,2013-03-25 20:10:00,
2013-03-25 15:15:00,36.8,19.9,30.13,NW,321,2.0,12.0,50,0.00,,---,0.00,721.00,VWS V14.01,2013-03-25 20:15:00,
2013-03-25 15:20:00,36.6,19.3,30.13,NNW,340,3.0,14.0,49,0.00,,---,0.00,705.00,VWS V14.01,2013-03-25 20:20:00,
2013-03-25 15:25:00,36.6,19.7,30.13,NNW,338,12.0,12.0,50,0.00,,---,0.00,689.00,VWS V14.01,2013-03-25 20:25:00,
2013-03-25 15:30:00,37.0,19.6,30.13,North,360,5.0,12.0,49,0.00,,---,0.00,682.00,VWS V14.01,2013-03-25 20:30:00,
2013-03-25 15:35:00,37.1,19.7,30.13,NNW,330,5.0,11.0,49,0.00,,---,0.00,659.00,VWS V14.01,2013-03-25 20:35:00,
2013-03-25 15:40:00,37.3,19.9,30.13,NNW,336,5.0,11.0,49,0.00,,---,0.00,650.00,VWS V14.01,2013-03-25 20:40:00,
2013-03-25 15:45:00,37.3,19.9,30.13,NNW,346,5.0,11.0,49,0.00,,---,0.00,642.00,VWS V14.01,2013-03-25 20:45:00,
2013-03-25 15:50:00,37.4,20.5,30.13,NW,307,5.0,9.0,50,0.00,,---,0.00,631.00,VWS V14.01,2013-03-25 20:50:00,
2013-03-25 15:55:00,37.9,20.5,30.13,WNW,303,4.0,10.0,49,0.00,,---,0.00,619.00,VWS V14.01,2013-03-25 20:55:00,
2013-03-25 16:00:00,37.7,20.8,30.14,NW,315,4.0,10.0,50,0.00,,---,0.00,605.00,VWS V14.01,2013-03-25 21:00:00,
2013-03-25 16:05:00,37.5,20.6,30.14,NNW,336,3.0,8.0,50,0.00,,---,0.00,596.00,VWS V14.01,2013-03-25 21:05:00,
2013-03-25 16:10:00,37.7,21.2,30.14,North,360,4.0,12.0,51,0.00,,---,0.00,580.00,VWS V14.01,2013-03-25 21:10:00,
2013-03-25 16:15:00,37.7,19.8,30.14,WNW,300,6.0,10.0,48,0.00,,---,0.00,575.00,VWS V14.01,2013-03-25 21:15:00,
2013-03-25 16:20:00,37.3,20.4,30.14,NW,311,6.0,11.0,50,0.00,,---,0.00,554.00,VWS V14.01,2013-03-25 21:20:00,
2013-03-25 16:25:00,37.1,20.2,30.14,NNE,15,4.0,10.0,50,0.00,,---,0.00,550.00,VWS V14.01,2013-03-25 21:25:00,
2013-03-25 16:30:00,37.3,20.4,30.14,WNW,292,11.0,11.0,50,0.00,,---,0.00,531.00,VWS V14.01,2013-03-25 21:30:00,
2013-03-25 16:35:00,37.1,20.2,30.15,NNW,339,4.0,12.0,50,0.00,,---,0.00,513.00,VWS V14.01,2013-03-25 21:35:00,
2013-03-25 16:40:00,37.1,20.2,30.14,North,355,0.0,8.0,50,0.00,,---,0.00,497.00,VWS V14.01,2013-03-25 21:40:00,
2013-03-25 16:45:00,37.3,20.9,30.15,NNW,327,4.0,10.0,51,0.00,,---,0.00,482.00,VWS V14.01,2013-03-25 21:45:00,
2013-03-25 16:50:00,37.5,21.0,30.14,North,11,5.0,6.0,51,0.00,,---,0.00,480.00,VWS V14.01,2013-03-25 21:50:00,
2013-03-25 16:55:00,37.7,20.8,30.14,NNE,13,7.0,9.0,50,0.00,,---,0.00,452.00,VWS V14.01,2013-03-25 21:55:00,
2013-03-25 17:00:00,37.6,20.7,30.14,NNW,335,9.0,12.0,50,0.00,,---,0.00,436.00,VWS V14.01,2013-03-25 22:00:00,
2013-03-25 17:05:00,37.5,20.6,30.15,West,281,9.0,12.0,50,0.00,,---,0.00,420.00,VWS V14.01,2013-03-25 22:05:00,
2013-03-25 17:10:00,37.1,20.2,30.15,North,349,7.0,13.0,50,0.00,,---,0.00,404.00,VWS V14.01,2013-03-25 22:10:00,
2013-03-25 17:15:00,36.9,20.0,30.15,North,11,7.0,11.0,50,0.00,,---,0.00,388.00,VWS V14.01,2013-03-25 22:15:00,
2013-03-25 17:20:00,37.0,20.6,30.15,North,10,5.0,13.0,51,0.00,,---,0.00,371.00,VWS V14.01,2013-03-25 22:20:00,
2013-03-25 17:25:00,37.0,20.6,30.15,NW,312,3.0,9.0,51,0.00,,---,0.00,362.00,VWS V14.01,2013-03-25 22:25:00,
2013-03-25 17:30:00,37.8,21.8,30.15,NNW,336,5.0,10.0,52,0.00,,---,0.00,343.00,VWS V14.01,2013-03-25 22:30:00,
2013-03-25 17:35:00,37.8,20.4,30.15,NW,311,4.0,9.0,49,0.00,,---,0.00,325.00,VWS V14.01,2013-03-25 22:35:00,
2013-03-25 17:40:00,37.7,20.8,30.15,WNW,292,2.0,8.0,50,0.00,,---,0.00,311.00,VWS V14.01,2013-03-25 22:40:00,
2013-03-25 17:45:00,38.2,20.7,30.15,North,355,1.0,7.0,49,0.00,,---,0.00,302.00,VWS V14.01,2013-03-25 22:45:00,
2013-03-25 17:50:00,38.3,20.8,30.16,NNW,333,3.0,7.0,49,0.00,,---,0.00,278.00,VWS V14.01,2013-03-25 22:50:00,
2013-03-25 17:55:00,37.9,20.5,30.16,NNW,346,4.0,10.0,49,0.00,,---,0.00,264.00,VWS V14.01,2013-03-25 22:55:00,
2013-03-25 18:00:00,37.3,19.9,30.16,NW,308,8.0,11.0,49,0.00,,---,0.00,248.00,VWS V14.01,2013-03-25 23:00:00,
2013-03-25 18:05:00,37.0,20.1,30.16,NW,317,3.0,9.0,50,0.00,,---,0.00,232.00,VWS V14.01,2013-03-25 23:05:00,
2013-03-25 18:10:00,37.1,20.7,30.17,NW,325,3.0,7.0,51,0.00,,---,0.00,216.00,VWS V14.01,2013-03-25 23:10:00,
2013-03-25 18:15:00,37.1,20.2,30.17,NE,45,6.0,11.0,50,0.00,,---,0.00,202.00,VWS V14.01,2013-03-25 23:15:00,
2013-03-25 18:20:00,36.9,20.0,30.17,North,355,3.0,10.0,50,0.00,,---,0.00,185.00,VWS V14.01,2013-03-25 23:20:00,
2013-03-25 18:25:00,36.9,20.0,30.17,WNW,300,1.0,6.0,50,0.00,,---,0.00,171.00,VWS V14.01,2013-03-25 23:25:00,
2013-03-25 18:30:00,37.0,20.6,30.17,North,9,5.0,6.0,51,0.00,,---,0.00,156.00,VWS V14.01,2013-03-25 23:30:00,
2013-03-25 18:35:00,37.0,20.6,30.17,NW,312,7.0,7.0,51,0.00,,---,0.00,144.00,VWS V14.01,2013-03-25 23:35:00,
2013-03-25 18:40:00,36.8,20.4,30.17,NW,314,3.0,9.0,51,0.00,,---,0.00,127.00,VWS V14.01,2013-03-25 23:40:00,
2013-03-25 18:45:00,36.7,20.3,30.18,NNW,334,4.0,7.0,51,0.00,,---,0.00,109.00,VWS V14.01,2013-03-25 23:45:00,
2013-03-25 18:50:00,36.5,20.1,30.18,NW,316,2.0,9.0,51,0.00,,---,0.00,97.00,VWS V14.01,2013-03-25 23:50:00,
2013-03-25 18:55:00,36.5,20.6,30.18,NW,308,4.0,6.0,52,0.00,,---,0.00,81.00,VWS V14.01,2013-03-25 23:55:00,
2013-03-25 19:00:00,36.3,20.4,30.18,NNW,331,5.0,11.0,52,0.00,,---,0.00,69.00,VWS V14.01,2013-03-26 00:00:00,
2013-03-25 19:05:00,36.0,20.5,30.18,NW,321,4.0,7.0,53,0.00,,---,0.00,63.00,VWS V14.01,2013-03-26 00:05:00,
2013-03-25 19:10:00,36.0,20.5,30.18,NNW,342,5.0,9.0,53,0.00,,---,0.00,44.00,VWS V14.01,2013-03-26 00:10:00,
2013-03-25 19:15:00,35.7,20.3,30.19,NW,319,2.0,8.0,53,0.00,,---,0.00,26.00,VWS V14.01,2013-03-26 00:15:00,
2013-03-25 19:20:00,35.5,20.1,30.19,NW,325,4.0,10.0,53,0.00,,---,0.00,21.00,VWS V14.01,2013-03-26 00:20:00,
2013-03-25 19:25:00,35.3,19.9,30.19,NW,311,4.0,10.0,53,0.00,,---,0.00,14.00,VWS V14.01,2013-03-26 00:25:00,
2013-03-25 19:30:00,35.2,20.2,30.19,NW,313,1.0,4.0,54,0.00,,---,0.00,7.00,VWS V14.01,2013-03-26 00:30:00,
2013-03-25 19:35:00,35.1,20.1,30.20,NW,313,2.0,9.0,54,0.00,,---,0.00,5.00,VWS V14.01,2013-03-26 00:35:00,
2013-03-25 19:40:00,34.9,20.4,30.20,NNE,17,6.0,7.0,55,0.00,,---,0.00,0.00,VWS V14.01,2013-03-26 00:40:00,
2013-03-25 19:45:00,34.7,19.8,30.20,NNW,331,2.0,10.0,54,0.00,,---,0.00,0.00,VWS V14.01,2013-03-26 00:45:00,
2013-03-25 19:50:00,34.6,20.1,30.20,North,355,4.0,7.0,55,0.00,,---,0.00,0.00,VWS V14.01,2013-03-26 00:50:00,
2013-03-25 19:55:00,34.5,20.0,30.20,WNW,302,3.0,6.0,55,0.00,,---,0.00,0.00,VWS V14.01,2013-03-26 00:55:00,
2013-03-25 20:00:00,34.4,19.9,30.20,NNW,331,3.0,7.0,55,0.00,,---,0.00,0.00,VWS V14.01,2013-03-26 01:00:00,
2013-03-25 20:05:00,34.4,19.9,30.20,NNW,333,2.0,5.0,55,0.00,,---,0.00,0.00,VWS V14.01,2013-03-26 01:05:00,
2013-03-25 20:10:00,34.4,20.3,30.20,NNW,340,5.0,6.0,56,0.00,,---,0.00,0.00,VWS V14.01,2013-03-26 01:10:00,
2013-03-25 20:15:00,34.4,20.3,30.20,NW,309,3.0,5.0,56,0.00,,---,0.00,0.00,VWS V14.01,2013-03-26 01:15:00,
2013-03-25 20:20:00,34.4,20.8,30.20,NNW,334,1.0,4.0,57,0.00,,---,0.00,0.00,VWS V14.01,2013-03-26 01:20:00,
2013-03-25 20:25:00,34.4,20.8,30.21,NW,311,2.0,4.0,57,0.00,,---,0.00,0.00,VWS V14.01,2013-03-26 01:25:00,
2013-03-25 20:30:00,34.3,20.7,30.21,NW,312,2.0,3.0,57,0.00,,---,0.00,0.00,VWS V14.01,2013-03-26 01:30:00,
2013-03-25 20:35:00,34.2,20.6,30.21,NW,312,0.0,4.0,57,0.00,,---,0.00,0.00,VWS V14.01,2013-03-26 01:35:00,
2013-03-25 20:40:00,34.1,20.5,30.21,NW,311,2.0,6.0,57,0.00,,---,0.00,0.00,VWS V14.01,2013-03-26 01:40:00,
2013-03-25 20:45:00,34.1,20.9,30.21,NW,312,0.0,2.0,58,0.00,,---,0.00,0.00,VWS V14.01,2013-03-26 01:45:00,
2013-03-25 20:50:00,33.9,20.7,30.21,NW,311,0.0,3.0,58,0.00,,---,0.00,0.00,VWS V14.01,2013-03-26 01:50:00,
2013-03-25 20:55:00,33.8,20.6,30.21,NW,312,0.0,3.0,58,0.00,,---,0.00,0.00,VWS V14.01,2013-03-26 01:55:00,
2013-03-25 21:00:00,33.7,20.9,30.21,NW,311,3.0,5.0,59,0.00,,---,0.00,0.00,VWS V14.01,2013-03-26 02:00:00,
2013-03-25 21:05:00,33.6,20.8,30.21,NW,312,1.0,3.0,59,0.00,,---,0.00,0.00,VWS V14.01,2013-03-26 02:05:00,
2013-03-25 21:10:00,33.5,21.1,30.21,NW,312,1.0,3.0,60,0.00,,---,0.00,0.00,VWS V14.01,2013-03-26 02:10:00,
2013-03-25 21:15:00,33.4,21.0,30.21,NW,312,1.0,3.0,60,0.00,,---,0.00,0.00,VWS V14.01,2013-03-26 02:15:00,
2013-03-25 21:20:00,33.3,20.9,30.21,NW,312,2.0,3.0,60,0.00,,---,0.00,0.00,VWS V14.01,2013-03-26 02:20:00,
2013-03-25 21:25:00,33.3,20.9,30.21,NW,313,1.0,4.0,60,0.00,,---,0.00,0.00,VWS V14.01,2013-03-26 02:25:00,
2013-03-25 21:30:00,33.2,20.8,30.21,NW,313,0.0,3.0,60,0.00,,---,0.00,0.00,VWS V14.01,2013-03-26 02:30:00,
2013-03-25 21:35:00,33.1,20.7,30.21,NW,313,0.0,3.0,60,0.00,,---,0.00,0.00,VWS V14.01,2013-03-26 02:35:00,
2013-03-25 21:40:00,33.1,21.1,30.22,NW,313,1.0,4.0,61,0.00,,---,0.00,0.00,VWS V14.01,2013-03-26 02:40:00,
2013-03-25 21:45:00,33.0,20.6,30.22,NW,313,1.0,3.0,60,0.00,,---,0.00,0.00,VWS V14.01,2013-03-26 02:45:00,
2013-03-25 21:50:00,32.9,20.9,30.22,NW,313,1.0,2.0,61,0.00,,---,0.00,0.00,VWS V14.01,2013-03-26 02:50:00,
2013-03-25 21:55:00,32.9,20.9,30.22,NW,313,0.0,3.0,61,0.00,,---,0.00,0.00,VWS V14.01,2013-03-26 02:55:00,
2013-03-25 22:00:00,32.8,20.9,30.22,NW,313,1.0,2.0,61,0.00,,---,0.00,0.00,VWS V14.01,2013-03-26 03:00:00,
2013-03-25 22:05:00,32.8,21.2,30.22,NW,313,1.0,2.0,62,0.00,,---,0.00,0.00,VWS V14.01,2013-03-26 03:05:00,
2013-03-25 22:10:00,32.7,21.1,30.22,NW,313,1.0,2.0,62,0.00,,---,0.00,0.00,VWS V14.01,2013-03-26 03:10:00,
2013-03-25 22:15:00,32.6,21.0,30.22,NW,313,1.0,1.0,62,0.00,,---,0.00,0.00,VWS V14.01,2013-03-26 03:15:00,
2013-03-25 22:20:00,32.5,21.3,30.21,NW,313,1.0,2.0,63,0.00,,---,0.00,0.00,VWS V14.01,2013-03-26 03:20:00,
2013-03-25 22:25:00,32.4,21.2,30.22,NW,313,1.0,2.0,63,0.00,,---,0.00,0.00,VWS V14.01,2013-03-26 03:25:00,
2013-03-25 22:30:00,32.3,21.1,30.22,NW,313,0.0,3.0,63,0.00,,---,0.00,0.00,VWS V14.01,2013-03-26 03:30:00,
2013-03-25 22:35:00,32.3,21.1,30.22,NW,313,0.0,2.0,63,0.00,,---,0.00,0.00,VWS V14.01,2013-03-26 03:35:00,
2013-03-25 22:40:00,32.2,21.4,30.22,NW,313,1.0,3.0,64,0.00,,---,0.00,0.00,VWS V14.01,2013-03-26 03:40:00,
2013-03-25 22:45:00,32.1,21.3,30.22,NW,313,1.0,3.0,64,0.00,,---,0.00,0.00,VWS V14.01,2013-03-26 03:45:00,
2013-03-25 22:50:00,32.1,21.3,30.21,NW,313,0.0,3.0,64,0.00,,---,0.00,0.00,VWS V14.01,2013-03-26 03:50:00,
2013-03-25 22:55:00,32.1,21.3,30.21,NW,313,0.0,2.0,64,0.00,,---,0.00,0.00,VWS V14.01,2013-03-26 03:55:00,
2013-03-25 23:00:00,32.0,21.2,30.21,NW,313,0.0,3.0,64,0.00,,---,0.00,0.00,VWS V14.01,2013-03-26 04:00:00,
2013-03-25 23:05:00,31.9,21.1,30.21,NW,313,2.0,3.0,64,0.00,,---,0.00,0.00,VWS V14.01,2013-03-26 04:05:00,
2013-03-25 23:10:00,31.9,21.1,30.21,NW,313,0.0,3.0,64,0.00,,---,0.00,0.00,VWS V14.01,2013-03-26 04:10:00,
2013-03-25 23:15:00,31.8,21.0,30.21,NW,313,1.0,5.0,64,0.00,,---,0.00,0.00,VWS V14.01,2013-03-26 04:15:00,
2013-03-25 23:20:00,31.8,21.0,30.21,NW,313,0.0,3.0,64,0.00,,---,0.00,0.00,VWS V14.01,2013-03-26 04:20:00,
2013-03-25 23:25:00,31.7,20.9,30.22,NW,313,1.0,3.0,64,0.00,,---,0.00,0.00,VWS V14.01,2013-03-26 04:25:00,
2013-03-25 23:30:00,31.7,21.3,30.22,NW,313,1.0,3.0,65,0.00,,---,0.00,0.00,VWS V14.01,2013-03-26 04:30:00,
2013-03-25 23:35:00,31.6,20.8,30.22,NW,313,1.0,5.0,64,0.00,,---,0.00,0.00,VWS V14.01,2013-03-26 04:35:00,
2013-03-25 23:40:00,31.6,21.2,30.22,NW,313,1.0,3.0,65,0.00,,---,0.00,0.00,VWS V14.01,2013-03-26 04:40:00,
2013-03-25 23:45:00,31.6,21.2,30.22,NW,313,3.0,3.0,65,0.00,,---,0.00,0.00,VWS V14.01,2013-03-26 04:45:00,
2013-03-25 23:50:00,31.5,21.1,30.22,WNW,290,1.0,3.0,65,0.00,,---,0.00,0.00,VWS V14.01,2013-03-26 04:50:00,
2013-03-25 23:55:00,31.5,21.5,30.22,WSW,257,1.0,3.0,66,0.00,,---,0.00,0.00,VWS V14.01,2013-03-26 04:55:00,